| time (UTC) | temp F | wind direction | speed MPH | gust MPH | rain 1hr in | rain 24hr in | rain mn in | humidity % | barometer mb |
| 20260503230029 | 61 | 270 | 6.0 | 12.0 | 0.00 | 0.17 | 0.17 | 42 | 1016.4 |
| 20260503225016 | 61 | 305 | 6.0 | 10.0 | 0.00 | 0.17 | 0.17 | 43 | 1016.4 |
| 20260503224102 | 60 | 243 | 5.0 | 7.0 | 0.00 | 0.17 | 0.17 | 43 | 1016.4 |
| 20260503223026 | 60 | 274 | 5.0 | 8.0 | 0.00 | 0.17 | 0.17 | 43 | 1016.4 |
| 20260503222030 | 61 | 287 | 6.0 | 9.0 | 0.00 | 0.17 | 0.17 | 43 | 1016.4 |
| 20260503221017 | 61 | 254 | 5.0 | 9.0 | 0.00 | 0.17 | 0.17 | 42 | 1016.4 |
| 20260503220021 | 61 | 301 | 4.0 | 8.0 | 0.00 | 0.17 | 0.17 | 42 | 1016.4 |
| 20260503215026 | 62 | 286 | 4.0 | 8.0 | 0.00 | 0.17 | 0.17 | 42 | 1016.4 |
| 20260503214031 | 64 | 273 | 6.0 | 9.0 | 0.00 | 0.17 | 0.17 | 40 | 1016.4 |
| 20260503213019 | 64 | 266 | 5.0 | 8.0 | 0.00 | 0.17 | 0.17 | 41 | 1016.5 |
| 20260503212043 | 63 | 275 | 7.0 | 15.0 | 0.00 | 0.17 | 0.17 | 41 | 1016.3 |
| 20260503211028 | 62 | 309 | 5.0 | 10.0 | 0.00 | 0.17 | 0.17 | 43 | 1016.4 |
| 20260503210032 | 63 | 279 | 5.0 | 9.0 | 0.00 | 0.17 | 0.17 | 42 | 1016.5 |
| 20260503205059 | 62 | 284 | 5.0 | 9.0 | 0.00 | 0.17 | 0.17 | 43 | 1016.5 |
| 20260503204024 | 63 | 252 | 7.0 | 13.0 | 0.00 | 0.17 | 0.17 | 43 | 1016.5 |
| 20260503203028 | 63 | 327 | 6.0 | 8.0 | 0.00 | 0.17 | 0.17 | 43 | 1016.5 |
| 20260503202032 | 63 | 288 | 8.0 | 13.0 | 0.00 | 0.17 | 0.17 | 41 | 1016.7 |
| 20260503201019 | 62 | 282 | 8.0 | 11.0 | 0.00 | 0.17 | 0.17 | 42 | 1016.8 |
| 20260503200025 | 62 | 261 | 7.0 | 11.0 | 0.00 | 0.17 | 0.17 | 42 | 1017.0 |
| 20260503195029 | 62 | 288 | 9.0 | 16.0 | 0.00 | 0.17 | 0.17 | 42 | 1017.2 |
| 20260503194036 | 63 | 249 | 9.0 | 11.0 | 0.00 | 0.17 | 0.17 | 42 | 1017.3 |
| 20260503193020 | 62 | 283 | 7.0 | 11.0 | 0.00 | 0.17 | 0.17 | 42 | 1017.4 |
| 20260503192025 | 61 | 308 | 7.0 | 11.0 | 0.00 | 0.17 | 0.17 | 44 | 1017.6 |
| 20260503191030 | 61 | 334 | 6.0 | 12.0 | 0.00 | 0.17 | 0.17 | 42 | 1017.6 |
| 20260503190016 | 62 | 275 | 10.0 | 18.0 | 0.00 | 0.17 | 0.17 | 43 | 1017.6 |
| 20260503185021 | 63 | 277 | 8.0 | 10.0 | 0.00 | 0.17 | 0.17 | 42 | 1017.7 |
| 20260503184025 | 62 | 268 | 9.0 | 14.0 | 0.00 | 0.17 | 0.17 | 43 | 1017.8 |
| 20260503183052 | 62 | 331 | 9.0 | 16.0 | 0.00 | 0.17 | 0.17 | 43 | 1017.9 |
| 20260503182038 | 61 | 275 | 7.0 | 13.0 | 0.00 | 0.17 | 0.17 | 43 | 1017.9 |
| 20260503181022 | 60 | 293 | 7.0 | 12.0 | 0.00 | 0.17 | 0.17 | 43 | 1018.1 |
| 20260503180027 | 60 | 304 | 7.0 | 11.0 | 0.00 | 0.17 | 0.17 | 42 | 1018.1 |
| 20260503175031 | 60 | 348 | 8.0 | 17.0 | 0.00 | 0.17 | 0.17 | 42 | 1018.1 |
| 20260503174018 | 60 | 339 | 9.0 | 13.0 | 0.00 | 0.17 | 0.17 | 42 | 1018.1 |
| 20260503173023 | 59 | 320 | 7.0 | 12.0 | 0.00 | 0.17 | 0.17 | 44 | 1018.1 |
| 20260503172028 | 59 | 286 | 10.0 | 15.0 | 0.00 | 0.17 | 0.17 | 43 | 1018.3 |
| 20260503171047 | 58 | 295 | 8.0 | 15.0 | 0.00 | 0.17 | 0.17 | 44 | 1018.6 |
| 20260503131021 | 46 | 311 | 6.0 | 9.0 | 0.00 | 0.17 | 0.17 | 66 | 1019.8 |
| 20260503110109 | 34 | 0.0 | 0.0 | 0.00 | 0.17 | 0.17 | 87 | 1019.0 | |
| 20260503081020 | 33 | 0.0 | 0.0 | 0.17 | 0.17 | 0.17 | 90 | 1017.4 | |
| 20260503072026 | 33 | 227 | 1.0 | 2.0 | 0.00 | 0.00 | 0.00 | 90 | 1017.1 |
| 20260503071031 | 33 | 316 | 1.0 | 3.0 | 0.00 | 0.00 | 0.00 | 93 | 1016.9 |
| 20260503055032 | 38 | 291 | 2.0 | 3.0 | 0.00 | 0.00 | 0.00 | 79 | 1017.2 |
| 20260503054040 | 38 | 286 | 1.0 | 3.0 | 0.00 | 0.00 | 0.00 | 81 | 1017.2 |
| 20260503053023 | 39 | 290 | 1.0 | 4.0 | 0.00 | 0.00 | 0.00 | 81 | 1017.2 |
| 20260503052030 | 39 | 274 | 3.0 | 5.0 | 0.00 | 0.00 | 0.00 | 81 | 1017.1 |
| 20260503051015 | 40 | 231 | 1.0 | 3.0 | 0.00 | 0.00 | 0.00 | 80 | 1017.2 |
| 20260503050020 | 40 | 0 | 3.0 | 6.0 | 0.00 | 0.00 | 0.00 | 81 | 1017.4 |
| 20260503045025 | 40 | 321 | 3.0 | 4.0 | 0.00 | 0.00 | 0.00 | 81 | 1017.5 |
| 20260503044029 | 40 | 276 | 2.0 | 4.0 | 0.00 | 0.00 | 0.00 | 81 | 1017.6 |
| 20260503043017 | 41 | 267 | 2.0 | 4.0 | 0.00 | 0.01 | 0.00 | 80 | 1017.6 |
| 20260503042041 | 41 | 294 | 2.0 | 3.0 | 0.00 | 0.01 | 0.00 | 79 | 1017.6 |
| 20260503041026 | 42 | 271 | 2.0 | 4.0 | 0.00 | 0.01 | 0.00 | 78 | 1017.6 |
| 20260503040030 | 42 | 298 | 4.0 | 5.0 | 0.00 | 0.01 | 0.00 | 78 | 1017.6 |
| 20260503035017 | 42 | 289 | 4.0 | 5.0 | 0.00 | 0.01 | 0.01 | 78 | 1017.6 |
| 20260503034023 | 43 | 275 | 3.0 | 4.0 | 0.00 | 0.01 | 0.01 | 77 | 1017.5 |
| 20260503033027 | 43 | 288 | 4.0 | 8.0 | 0.00 | 0.01 | 0.01 | 75 | 1017.4 |
| 20260503032052 | 43 | 297 | 3.0 | 6.0 | 0.00 | 0.01 | 0.01 | 75 | 1017.2 |
| 20260503031020 | 44 | 19 | 3.0 | 6.0 | 0.00 | 0.28 | 0.01 | 75 | 1017.6 |
| 20260503030023 | 45 | 313 | 2.0 | 4.0 | 0.00 | 0.28 | 0.01 | 74 | 1017.8 |
| 20260503025028 | 45 | 300 | 3.0 | 6.0 | 0.00 | 0.28 | 0.01 | 73 | 1017.9 |
| 20260503024015 | 45 | 295 | 5.0 | 7.0 | 0.00 | 0.28 | 0.01 | 73 | 1017.9 |
| 20260503023020 | 45 | 321 | 3.0 | 4.0 | 0.00 | 0.28 | 0.01 | 73 | 1017.9 |
| 20260503022024 | 45 | 308 | 4.0 | 6.0 | 0.00 | 0.28 | 0.01 | 72 | 1018.1 |
| 20260503021029 | 46 | 299 | 4.0 | 9.0 | 0.00 | 0.28 | 0.01 | 73 | 1018.1 |
| 20260503020036 | 46 | 315 | 4.0 | 7.0 | 0.00 | 0.28 | 0.01 | 73 | 1017.9 |
| 20260503015041 | 46 | 328 | 4.0 | 8.0 | 0.00 | 0.28 | 0.01 | 74 | 1017.9 |
| 20260503014026 | 46 | 307 | 5.0 | 8.0 | 0.00 | 0.28 | 0.01 | 72 | 1017.8 |
| 20260503013112 | 46 | 301 | 4.0 | 6.0 | 0.00 | 0.28 | 0.01 | 73 | 1017.6 |
| 20260503012039 | 46 | 289 | 3.0 | 6.0 | 0.00 | 0.28 | 0.01 | 73 | 1017.6 |
| 20260503011022 | 46 | 330 | 4.0 | 6.0 | 0.00 | 0.28 | 0.01 | 73 | 1017.4 |
| 20260503010027 | 46 | 322 | 2.0 | 5.0 | 0.00 | 0.28 | 0.01 | 73 | 1017.3 |
| 20260503005025 | 46 | 290 | 3.0 | 6.0 | 0.00 | 0.28 | 0.01 | 71 | 1017.2 |
| 20260503004019 | 46 | 326 | 3.0 | 6.0 | 0.00 | 0.28 | 0.01 | 73 | 1017.1 |
| 20260503003024 | 46 | 319 | 2.0 | 4.0 | 0.00 | 0.28 | 0.01 | 72 | 1017.1 |
| 20260503002042 | 47 | 334 | 3.0 | 5.0 | 0.00 | 0.28 | 0.01 | 71 | 1017.0 |
| 20260503001021 | 47 | 349 | 3.0 | 6.0 | 0.00 | 0.28 | 0.01 | 70 | 1016.8 |
| 20260503000041 | 48 | 326 | 5.0 | 6.0 | 0.00 | 0.28 | 0.01 | 69 | 1016.6 |
| 20260502235018 | 49 | 329 | 3.0 | 4.0 | 0.00 | 0.28 | 0.01 | 68 | 1016.7 |
| 20260502234017 | 49 | 331 | 4.0 | 9.0 | 0.00 | 0.28 | 0.01 | 67 | 1016.7 |
| 20260502233016 | 49 | 340 | 7.0 | 9.0 | 0.00 | 0.28 | 0.01 | 67 | 1016.6 |
| 20260502232020 | 50 | 299 | 5.0 | 8.0 | 0.00 | 0.28 | 0.01 | 66 | 1016.5 |
| 20260502231045 | 50 | 302 | 5.0 | 8.0 | 0.00 | 0.28 | 0.01 | 66 | 1016.3 |